This demonstration page uses our WeatherBlox Daily Observations layout. Learn more.

Hourly Observations for February 14, 2020

Temp ( °F °C ) Dew Point ( °F °C ) Humidity (%) Winds ( mph kmh ) Pressure ( in mb ) Visibility ( mi km ) Precip ( " mm )
12:15 am 00:15 Cloudy 39 4 28 -2 65 65 WNW 8 13 30.09 1019 10 16.0934 0 0
12:35 am 00:35 Cloudy 39 4 28 -2 65 65 WNW 7 11 30.1 1019 10 16.0934 0 0
12:55 am 00:55 Mostly Cloudy 37 3 28 -2 70 70 WNW 5 7 30.1 1019 10 16.0934 0 0
1:15 am 01:15 Cloudy 39 4 28 -2 65 65 NW 9 15 30.1 1019 10 16.0934 0 0
1:35 am 01:35 Mostly Cloudy 39 4 27 -3 61 61 WNW 9 15 30.1 1019 10 16.0934 0 0
1:55 am 01:55 Clear 37 3 27 -3 65 65 WNW 8 13 30.1 1019 10 16.0934 0 0
2:15 am 02:15 Partly Cloudy 37 3 27 -3 65 65 WNW 5 7 30.1 1019 10 16.0934 0 0
2:35 am 02:35 Cloudy 36 2 28 -2 75 75 NW 7 11 30.11 1020 10 16.0934 0 0
2:55 am 02:55 Cloudy 37 3 28 -2 70 70 NW 12 19 30.11 1020 10 16.0934 0 0
3:15 am 03:15 Cloudy 37 3 28 -2 70 70 NW 9 15 30.12 1020 10 16.0934 0 0
3:35 am 03:35 Cloudy 37 3 28 -2 70 70 WNW 18 30 30.13 1020 10 16.0934 0 0
3:55 am 03:55 Cloudy 37 3 27 -3 65 65 WNW 17 28 30.14 1021 10 16.0934 0 0
4:15 am 04:15 Cloudy 37 3 27 -3 65 65 WNW 10 17 30.15 1021 10 16.0934 0 0
4:35 am 04:35 Cloudy 37 3 27 -3 65 65 NW 10 17 30.15 1021 10 16.0934 0 0
4:55 am 04:55 Cloudy 37 3 28 -2 70 70 N 13 20 30.17 1022 10 16.0934 0 0
5:15 am 05:15 Cloudy 37 3 28 -2 70 70 NNW 10 17 30.18 1022 10 16.0934 0 0
5:35 am 05:35 Cloudy 36 2 27 -3 70 70 NNW 9 15 30.2 1023 10 16.0934 0 0
5:55 am 05:55 Cloudy 36 2 27 -3 70 70 N 5 7 30.21 1023 10 16.0934 0 0
6:15 am 06:15 Cloudy 36 2 27 -3 70 70 N 8 13 30.23 1024 10 16.0934 0 0
6:35 am 06:35 Cloudy 34 1 27 -3 75 75 N 14 22 30.25 1024 10 16.0934 0 0
6:55 am 06:55 Cloudy 34 1 27 -3 75 75 N 14 22 30.26 1025 10 16.0934 0 0
7:15 am 07:15 Cloudy 34 1 25 -4 70 70 N 12 19 30.27 1025 10 16.0934 0 0
7:35 am 07:35 Cloudy 32 0 23 -5 69 69 N 13 20 30.29 1026 10 16.0934 0 0
7:55 am 07:55 Cloudy 32 0 23 -5 69 69 N 13 20 30.31 1026 10 16.0934 0 0
8:15 am 08:15 Cloudy 32 0 23 -5 69 69 N 13 20 30.33 1027 10 16.0934 0 0
8:35 am 08:35 Cloudy 32 0 23 -5 69 69 N 9 15 30.33 1027 10 16.0934 0 0
8:55 am 08:55 Cloudy 32 0 21 -6 64 64 N 16 26 30.35 1028 10 16.0934 0 0
9:15 am 09:15 Cloudy 32 0 21 -6 64 64 N 14 22 30.35 1028 10 16.0934 0 0
9:35 am 09:35 Cloudy 34 1 19 -7 56 56 N 14 22 30.36 1028 10 16.0934 0 0
9:55 am 09:55 Mostly Cloudy 34 1 19 -7 56 56 N 14 22 30.36 1028 10 16.0934 0 0
10:15 am 10:15 Partly Cloudy 34 1 21 -6 60 60 N 17 28 30.37 1028 10 16.0934 0 0
10:35 am 10:35 Mostly Cloudy 34 1 21 -6 60 60 NNW 15 24 30.38 1029 10 16.0934 0 0
10:55 am 10:55 Mostly Cloudy 34 1 21 -6 60 60 NNW 16 26 30.39 1029 10 16.0934 0 0
11:15 am 11:15 Partly Cloudy 34 1 19 -7 56 56 NNW 16 26 30.39 1029 10 16.0934 0 0
11:35 am 11:35 Partly Cloudy 36 2 19 -7 52 52 N 21 33 30.38 1029 10 16.0934 0 0
11:55 am 11:55 Partly Cloudy 36 2 19 -7 52 52 NNW 12 19 30.39 1029 10 16.0934 0 0
12:15 pm 12:15 Partly Cloudy 34 1 18 -8 51 51 N 12 19 30.39 1029 10 16.0934 0 0
12:35 pm 12:35 Mostly Cloudy 34 1 18 -8 51 51 NW 18 30 30.4 1029 10 16.0934 0 0
12:55 pm 12:55 Partly Cloudy 34 1 18 -8 51 51 NW 15 24 30.4 1029 10 16.0934 0 0
1:15 pm 13:15 Partly Cloudy 34 1 18 -8 51 51 N 17 28 30.4 1029 10 16.0934 0 0
1:35 pm 13:35 Sunny 34 1 16 -9 48 48 N 18 30 30.4 1029 10 16.0934 0 0
1:55 pm 13:55 Sunny 34 1 18 -8 51 51 NNW 21 33 30.4 1029 10 16.0934 0 0
2:15 pm 14:15 Sunny 34 1 14 -10 44 44 N 18 30 30.4 1029 10 16.0934 0 0
2:35 pm 14:35 Partly Cloudy 34 1 16 -9 48 48 NNW 18 30 30.42 1030 10 16.0934 0 0
2:55 pm 14:55 Sunny 34 1 14 -10 44 44 NNW 15 24 30.42 1030 10 16.0934 0 0
3:15 pm 15:15 Partly Cloudy 34 1 14 -10 44 44 N 15 24 30.42 1030 10 16.0934 0 0
3:35 pm 15:35 Sunny 34 1 14 -10 44 44 NNW 21 33 30.42 1030 10 16.0934 0 0
3:55 pm 15:55 Sunny 32 0 12 -11 44 44 NNW 17 28 30.44 1031 10 16.0934 0 0
4:15 pm 16:15 Sunny 32 0 14 -10 47 47 NNW 14 22 30.45 1031 10 16.0934 0 0
4:35 pm 16:35 Sunny 32 0 14 -10 47 47 N 17 28 30.46 1032 10 16.0934 0 0
4:55 pm 16:55 Sunny 32 0 12 -11 44 44 N 16 26 30.46 1032 10 16.0934 0 0
5:15 pm 17:15 Sunny 30 -1 12 -11 47 47 N 8 13 30.48 1032 10 16.0934 0 0
5:35 pm 17:35 Partly Cloudy 30 -1 12 -11 47 47 N 12 19 30.49 1033 10 16.0934 0 0
5:55 pm 17:55 Clear 30 -1 12 -11 47 47 N 10 17 30.5 1033 10 16.0934 0 0
6:15 pm 18:15 Clear 28 -2 12 -11 51 51 N 12 19 30.51 1033 10 16.0934 0 0
6:35 pm 18:35 Clear 28 -2 10 -12 47 47 N 10 17 30.54 1034 10 16.0934 0 0
6:55 pm 18:55 Clear 28 -2 12 -11 51 51 N 10 17 30.55 1034 10 16.0934 0 0
7:15 pm 19:15 Clear 28 -2 12 -11 51 51 N 12 19 30.56 1035 10 16.0934 0 0
8:55 pm 20:55 Clear 27 -3 10 -12 50 50 N 6 9 30.59 1036 10 16.0934 0 0
10:15 pm 22:15 Clear 25 -4 10 -12 54 54 N 5 7 30.62 1037 10 16.0934 0 0
10:35 pm 22:35 Clear 25 -4 10 -12 54 54 N 5 7 30.62 1037 10 16.0934 0 0
10:55 pm 22:55 Clear 23 -5 10 -12 58 58 NNW 3 6 30.63 1037 10 16.0934 0 0
11:15 pm 23:15 Clear 23 -5 10 -12 58 58 N 5 7 30.63 1037 10 16.0934 0 0
11:35 pm 23:35 Clear 23 -5 10 -12 58 58 N 3 6 30.64 1038 10 16.0934 0 0
11:55 pm 23:55 Clear 23 -5 10 -12 58 58 Calm 30.64 1038 10 16.0934 0 0

Powered by AerisWeather